Find Starlink 31597

NORAD ID: 59464 Int'l Des: 2024-068 Owner: SPXS Country: US Constellation: starlink operational
LEOCIRCULAR

現在のビュー

3D地球を読み込み中...

About Starlink 31597

Starlink 31597 (NORAD 59464) is a starlink constellation satellite (v2 mini) launched Apr 10, 2024 by SPXS of US. It operates in LEO, CIRCULAR orbit with a mass of 730.00 kg.

次回通過

Passes for default location (London). Set your location on the main map for personalized predictions.

高度履歴

Loading altitude history...

軌道要素

1 59464U 24068K 26263.61462916 .00000216 00000-0 17378-4 0 9991
2 59464 43.0042 13.7115 0000967 273.4569 86.6172 15.27582925138287
Epoch: Sep 20, 2026 • Age: 7 hours

現在のステータス

高度 484.1 km
遠地点 / 近地点 N/A
速度 7.62 km/s
衛星直下点 -7.72°S, 127.37°W
打ち上げ日 Apr 10, 2024
運用期間 2.4 years
タイプ internet

技術仕様

分類 Payload
質量 730.00 kg
乾燥質量 700.00 kg
長さ 0.30 m
スパン 29.00 m
形状 ? Box + pan
製造者 SPXS
バスタイプ Starlink V2M
フェーズステータス In Orbit
所有者/国 SPXS/US

Most Searched